Lapse_Rate
3.4 3.7 4.7 4.5 4.6 4.8 5.1 5.7 6.3 7.2 6.9 6.9 7.4 7.1 6.9 7.0 7.1 7.2 7.1 7.4 6.7 8.2 8.7 8.9 9.1 9.3 9.3 9.2 9.3 9.3 9.3 9.3 9.3 9.3 9.4 9.4 9.5 9.4
4.1 4.2 4.9 5.0 5.3 5.1 5.0 5.5 6.3 7.1 7.6 7.4 7.7 7.9 8.3 7.8 7.0 7.0 6.1 6.2 7.1 9.4 9.5 9.6 9.5 9.4 9.4 9.3 9.4 9.4 9.4 9.4 9.4 9.4 9.4 9.4 9.4 9.5
3.5 4.8 4.7 4.8 5.2 5.5 5.2 5.5 5.9 7.1 7.5 7.8 8.3 8.8 8.5 8.7 8.8 7.8 7.8 7.6 8.8 9.5 9.6 9.7 9.6 9.6 9.5 9.5 9.5 9.4 9.4 9.4 9.4 9.4 9.5 9.6 9.1 8.9
5.1 4.5 4.6 5.5 5.7 6.2 5.9 6.2 6.8 7.4 7.9 7.9 8.4 8.5 7.8 7.2 7.9 8.5 9.3 9.8 9.6 9.7 9.7 9.7 9.7 9.6 9.5 9.4 9.4 9.3 9.3 9.3 9.4 9.4 9.5 9.3 9.2 9.3
4.5 4.7 4.9 5.1 5.6 5.6 6.0 6.5 7.1 7.8 7.7 8.4 7.6 7.2 7.3 8.4 8.7 8.7 9.0 9.1 9.3 9.4 9.7 9.7 9.5 9.5 9.5 9.5 9.5 9.5 9.4 9.5 9.5 9.3 9.4 9.4 9.4 9.4
4.5 4.4 4.5 4.6 4.5 4.8 5.2 5.7 6.7 6.9 8.1 8.1 8.0 8.0 8.6 8.8 8.8 8.5 8.5 8.5 8.4 9.2 9.1 8.9 9.5 9.6 9.6 9.7 9.6 9.6 9.6 9.4 9.0 9.1 9.4 9.4 9.3 9.4
4.8 4.9 4.8 3.1 3.0 3.7 4.2 4.6 5.5 6.7 7.7 8.1 8.2 8.3 8.5 8.6 8.5 8.7 8.4 8.6 8.5 8.6 8.5 9.1 9.2 9.0 9.2 9.5 9.6 9.7 9.6 9.5 9.4 9.3 9.2 9.1 9.2 9.2
4.6 4.8 5.2 4.9 4.4 4.5 5.0 5.6 7.1 7.7 8.3 8.3 8.3 8.4 8.7 8.7 9.0 8.6 8.2 8.0 7.8 8.9 8.8 8.6 9.2 8.4 9.1 9.3 9.6 9.5 9.5 9.4 9.4 9.4 9.3 9.2 9.1 9.2
4.1 4.3 4.7 5.5 4.9 5.8 6.7 8.7 9.4 9.7 9.6 8.9 8.6 8.7 8.3 8.7 8.7 7.9 7.9 7.8 7.7 8.4 8.8 8.1 8.3 8.4 9.3 9.7 9.5 9.5 9.5 9.4 9.4 9.3 9.3 9.2 9.2 9.1
4.6 4.2 4.2 5.0 6.3 6.8 7.0 8.4 8.8 8.8 9.3 9.3 8.5 8.3 8.8 8.7 8.6 8.8 8.3 8.1 8.2 8.6 9.0 7.7 8.2 8.0 8.6 8.5 8.7 9.5 9.6 9.6 9.4 9.4 9.4 9.2 9.0 9.0
5.1 5.3 5.0 5.4 7.0 6.6 8.6 8.5 9.0 9.1 9.6 9.1 9.5 9.3 9.4 9.4 9.4 9.0 8.0 7.3 7.4 7.9 8.4 8.4 7.8 7.8 8.1 7.8 9.0 9.5 9.2 9.5 9.5 9.5 9.3 9.0 8.8 8.7
5.2 6.3 8.2 8.2 7.2 7.0 8.4 8.7 8.0 7.9 8.3 8.5 9.0 9.2 9.4 9.3 9.4 9.0 8.2 7.3 7.4 7.3 7.9 7.9 7.8 7.7 7.6 7.9 7.4 7.9 8.6 9.0 9.4 9.3 9.0 8.7 8.8 8.3
6.0 7.4 8.2 8.2 6.4 7.2 7.9 7.1 7.5 8.5 8.4 8.4 9.0 8.9 8.9 9.0 8.8 9.0 8.8 8.3 7.2 6.9 7.7 8.2 7.3 7.2 7.6 7.4 7.4 7.3 8.0 7.9 7.9 7.9 8.2 8.2 8.9 8.9
6.0 7.0 6.9 6.3 6.7 6.4 6.3 6.6 6.9 9.0 8.8 8.7 8.7 8.5 8.3 8.2 8.0 8.2 8.3 8.2 8.1 7.8 8.1 8.1 7.3 7.4 7.3 7.4 7.7 7.1 7.2 7.0 7.1 7.4 7.1 7.7 8.1 8.4
6.7 6.2 7.0 8.2 7.0 6.1 7.0 8.4 9.5 9.0 8.6 8.4 8.1 8.0 8.2 8.2 8.0 7.8 8.7 8.3 8.1 7.8 8.5 8.2 7.7 7.3 7.2 6.9 7.0 7.0 7.7 6.1 7.2 7.2 7.3 7.2 7.6 7.2
7.3 6.2 6.4 6.6 6.9 8.4 9.2 8.9 8.6 8.6 8.6 8.2 8.3 8.3 8.4 8.3 8.3 8.3 8.0 8.2 7.6 7.2 6.9 7.7 7.7 7.5 7.2 7.3 7.3 7.2 6.8 6.9 6.9 7.3 7.6 7.0 6.7 6.9
5.9 5.2 5.6 6.8 7.8 8.5 8.4 7.8 7.5 8.7 8.3 8.3 8.3 8.2 8.1 8.4 8.1 8.0 8.0 7.7 7.5 7.8 7.9 7.2 7.5 7.5 7.1 6.9 6.9 6.2 6.6 7.2 7.1 7.5 7.4 7.0 6.8 7.8
5.2 5.2 7.1 7.7 8.1 8.0 7.3 6.8 7.5 8.4 7.5 7.3 7.2 7.6 7.9 7.5 7.5 7.0 7.4 7.8 7.5 7.7 7.6 7.2 7.6 7.3 6.8 6.5 8.4 7.4 7.7 7.6 7.4 7.1 7.2 7.3 7.6 7.3
5.8 6.7 7.1 7.2 7.1 7.6 7.4 7.4 7.9 8.1 7.5 6.7 6.3 7.0 7.6 6.9 7.3 7.0 7.5 7.7 7.6 7.4 7.3 7.7 7.7 7.2 7.1 7.0 7.0 9.0 7.2 6.5 6.6 6.6 6.9 7.1 7.0 6.7
6.5 6.5 6.4 6.9 7.1 7.7 8.0 8.0 8.1 8.1 7.4 6.7 7.5 7.5 6.2 7.3 7.1 7.2 7.6 7.4 7.3 7.2 7.6 7.8 7.8 7.6 7.2 7.2 7.0 6.2 7.5 6.6 7.2 7.0 6.8 6.9 6.7 7.8
6.4 6.8 6.8 7.4 8.3 8.2 8.2 7.9 7.8 7.7 7.7 7.2 6.4 6.6 6.7 7.0 7.1 7.0 7.4 8.5 8.4 7.7 7.5 7.7 7.3 9.0 7.8 7.5 6.6 6.3 6.1 7.6 8.4 7.4 7.2 7.5 7.3 7.0
6.8 6.9 7.5 8.2 8.3 8.1 8.0 7.7 7.5 8.0 7.7 6.7 6.4 6.5 6.4 7.0 7.5 7.6 7.7 7.3 7.3 7.7 7.8 7.2 5.9 6.2 7.0 6.5 6.3 6.0 5.6 5.6 6.3 6.7 7.3 8.1 7.5 6.9
6.0 6.6 7.4 8.3 8.1 7.7 7.8 7.6 7.1 7.4 7.3 6.6 6.4 6.3 6.3 6.7 7.4 7.7 7.0 7.2 7.1 6.7 6.6 6.5 6.2 6.2 6.7 6.7 7.5 6.6 5.7 5.7 6.0 5.2 5.2 7.2 7.5 7.5
Wind_Speed
5 5 4 4 3 3 3 2 2 3 4 3 3 11 13 14 14 16 17 20 25 23 23 22 23 26 27 27 28 27 28 29 29 29 28 28 29 30
3 6 3 3 2 1 2 3 3 4 4 5 7 9 14 15 19 18 20 22 24 23 25 24 27 29 29 28 28 28 28 28 28 29 29 30 29 29
6 3 4 3 2 2 2 3 3 4 7 7 7 8 10 10 12 18 18 20 19 23 26 27 30 29 28 29 28 27 26 27 28 29 29 30 29 29
3 3 4 2 3 3 2 4 4 5 5 10 8 7 9 10 14 11 12 16 16 20 26 28 27 27 28 28 27 27 26 26 28 27 27 26 27 29
4 4 3 3 4 4 5 4 4 5 6 7 8 7 8 8 8 7 7 10 15 22 23 26 26 24 26 29 29 31 31 28 25 23 23 27 28 29
3 3 4 4 5 6 6 6 6 6 6 6 7 8 8 9 7 8 8 7 9 16 21 21 25 25 29 28 29 25 25 23 22 26 26 27 27 28
3 3 2 3 4 6 5 6 7 6 6 7 8 8 9 8 9 8 9 9 10 8 10 10 12 15 16 21 23 23 25 25 24 26 27 27 28 28
3 4 4 3 5 8 8 10 10 7 8 7 8 9 10 10 9 9 10 11 12 10 9 10 11 9 11 16 25 26 27 28 28 26 24 25 25 25
3 4 4 4 5 5 10 14 12 12 13 9 10 10 12 11 11 12 12 11 11 10 11 10 8 9 12 16 24 28 27 23 23 24 24 25 25 25
2 4 5 6 6 8 9 9 9 10 9 6 9 11 11 13 11 11 12 12 10 8 8 10 9 9 8 16 25 23 19 23 28 23 26 25 25 25
3 4 4 6 8 13 9 10 11 10 13 18 20 24 25 23 20 9 8 8 10 9 8 8 7 10 9 9 11 17 28 24 27 26 25 25 24 24
5 5 5 5 10 14 10 10 10 10 10 12 10 13 15 16 19 8 6 8 9 11 6 9 8 7 7 6 7 12 14 22 25 27 24 23 22 9
5 5 5 10 13 16 17 9 10 12 13 10 8 7 8 7 7 11 10 7 8 9 12 10 8 8 7 9 4 8 9 9 12 14 21 22 22 19
6 6 6 15 16 17 13 14 15 15 7 6 7 8 7 7 7 9 14 14 15 12 18 14 7 9 9 9 11 8 9 8 7 8 6 17 21 21
6 9 16 14 14 10 12 13 14 5 5 7 7 8 7 8 11 9 13 15 15 16 16 15 7 9 7 8 9 9 11 7 9 3 6 7 8 9
7 7 12 12 11 10 8 6 4 4 6 7 7 8 7 8 8 8 8 8 9 8 13 15 13 9 8 8 9 10 10 6 8 6 6 6 8 8
8 6 6 4 4 4 4 4 4 5 5 6 7 8 7 8 8 7 7 8 8 9 9 8 11 11 8 10 10 9 9 8 7 7 7 6 7 7
6 6 4 4 5 5 6 6 7 7 6 7 7 7 8 8 7 8 7 7 8 8 9 9 9 8 7 5 12 6 7 7 7 8 7 6 7 6
4 5 4 4 4 5 6 6 7 6 8 7 7 8 7 7 10 8 7 7 8 9 9 8 8 8 9 10 5 9 9 9 8 7 6 6 8 7
4 4 4 4 5 6 6 7 7 6 7 7 7 7 7 7 7 7 7 8 8 8 9 8 7 8 9 9 10 10 18 7 6 8 7 7 8 21
4 4 3 5 6 6 7 7 7 6 8 6 7 7 7 7 7 7 7 15 16 8 9 9 7 21 9 7 8 8 7 17 14 7 8 9 8 8
4 4 5 6 7 6 7 7 6 6 7 6 7 7 7 7 8 8 7 9 7 8 9 8 7 7 6 5 9 11 9 8 15 19 20 16 7 6
5 5 6 7 7 6 8 8 4 7 7 6 7 7 7 8 8 8 8 8 7 7 8 9 7 7 7 5 11 9 14 12 9 10 7 15 20 21
Wind_Direction
69 71 47 59 33 18 348 323 317 309 314 342 335 351 334 323 330 325 326 323 321 319 319 318 319 316 311 311 310 308 307 304 300 297 295 293 292 289
64 67 47 42 22 351 333 314 303 287 278 332 315 322 323 325 320 330 327 325 316 315 316 314 316 316 313 310 309 307 303 302 302 300 297 293 291 290
66 58 67 32 5 320 322 297 291 288 290 298 308 318 316 314 329 322 308 304 303 312 314 316 315 313 310 308 307 305 304 305 301 300 300 295 303 303
89 69 61 14 319 315 323 302 290 296 303 304 308 313 336 320 295 283 292 298 308 314 313 310 310 314 313 312 310 308 305 307 306 302 301 300 296 296
60 45 34 4 341 338 321 313 315 320 308 306 314 313 302 293 305 292 296 324 326 311 313 313 313 314 314 312 307 307 305 306 303 296 301 300 294 291
73 46 22 7 348 336 325 327 328 316 312 299 303 303 302 309 306 316 315 318 305 306 311 310 310 309 309 314 312 314 311 309 312 305 302 297 292 287
65 35 16 18 294 323 324 328 324 321 314 312 310 311 310 318 321 320 316 312 309 305 304 296 310 305 309 312 310 310 315 308 305 302 302 299 294 296
9 351 359 256 353 324 325 301 283 290 301 306 306 305 308 320 319 326 324 317 313 305 314 304 306 301 303 305 307 312 311 308 306 304 301 305 301 296
356 330 332 349 337 338 322 314 309 308 301 301 303 310 311 317 322 320 315 310 305 307 305 305 312 302 308 308 310 305 304 310 311 308 307 306 304 302
335 336 335 335 338 341 322 312 322 303 304 317 311 305 301 303 306 310 306 301 300 303 313 307 313 307 312 304 302 304 309 312 313 310 308 308 304 299
341 327 335 310 321 328 317 309 300 300 314 317 313 307 307 311 307 305 310 311 309 313 315 306 311 307 306 294 296 322 314 307 312 312 314 313 312 307
336 319 287 288 323 322 313 314 313 314 323 316 311 313 318 308 308 327 326 316 308 308 311 312 314 322 312 270 330 304 309 308 316 317 319 315 309 304
314 312 316 333 325 316 318 311 311 321 317 308 312 314 300 310 316 305 301 291 290 286 295 308 305 301 293 306 301 311 299 315 307 316 311 311 312 315
308 312 326 319 313 315 317 314 320 317 297 313 315 309 318 315 310 307 302 295 289 283 295 294 288 302 296 296 303 303 307 305 307 305 313 318 314 318
295 301 303 308 312 318 313 307 307 312 325 316 311 315 315 312 315 311 310 309 301 296 300 299 299 293 293 289 294 301 308 310 296 292 306 312 317 306
317 320 310 307 303 296 302 319 319 318 318 317 313 311 311 316 310 313 312 310 306 310 309 303 295 291 289 284 289 294 301 289 296 289 290 301 313 307
321 308 299 303 304 301 315 318 314 312 322 316 312 311 313 307 303 313 309 310 307 309 309 305 295 280 272 276 284 285 288 288 293 304 304 305 303 308
309 299 294 300 300 317 318 315 313 317 320 314 307 307 300 302 312 311 309 304 304 307 305 305 310 311 299 274 273 293 298 303 306 303 295 287 293 301
286 291 294 298 311 308 305 301 308 316 313 306 304 293 299 310 310 306 305 306 306 301 302 309 313 308 315 312 297 311 312 301 297 290 297 296 290 288
283 283 293 299 303 302 298 297 298 304 304 297 291 302 299 294 302 302 308 306 303 308 313 311 317 318 309 311 313 306 293 281 297 300 300 300 292 295
288 293 295 298 294 293 295 289 288 295 299 300 298 294 295 296 295 294 295 307 315 314 312 312 312 314 307 303 305 306 309 313 312 306 302 295 298 302
295 299 295 295 282 282 297 286 280 295 292 289 290 294 295 293 291 292 292 294 299 306 301 299 301 303 299 303 301 300 305 308 306 303 301 292 291 288
293 289 288 286 289 287 304 290 285 300 289 287 287 290 291 295 291 287 280 282 287 297 294 297 297 296 287 285 294 298 299 303 311 309 295 298 299 293